{"data":{"norad_id":67493,"epoch":"2026-09-19T09:41:53.852064Z","epoch_age_seconds":166944,"freshness":"FRESH","line1":"1 67493U 26012A   26262.40409551  .00013597  00000+0  50227-3 0  9999","line2":"2 67493  43.0018 300.7882 0003841 295.1173  64.9280 15.27605087 37380","mean_motion":15.27605087,"eccentricity":0.0003841,"inclination_deg":43.0018,"raan_deg":300.7882,"arg_perigee_deg":295.1173,"mean_anomaly_deg":64.928,"bstar":0.00050227,"rev_number":3738,"period_min":94.265200623805,"perigee_km":480.33862483821,"apogee_km":485.60933029117,"semimajor_km":6861.1109775647,"source":"CELESTRAK","updated_at":"2026-09-20T09:00:43.555490Z"}}